FALCON 9 DEB (53090 NORAD) Tracking and Keplerian Element Data

This shows tracking and keplerian element data for the satellite.

Feedback or suggestion? Click here.




ElementValue
Catalog53090
NameFALCON 9 DEB
Epoch Orbit893
Epoch Day248.04481912
Epoch Year2022
RAAN73.207
Inclination97.6609
Eccentricity0.0001534
Argument of Perigee297.046
Mean Anonmoly63.0666
Mean Motion16.11500805
Decay Rate0.00821192
L11 53090U 22077AZ 22248.04481912 .00821192 39084-3 80722-3 0 9994
L22 53090 97.6609 73.2070 0001534 297.0460 63.0666 16.11500805 8930

Live tracking and technical data element details for FALCON 9 DEB (NORAD 53090). FALCON 9 DEB can be tracked NOW for your location showing map with azimuth and elevation plus other details from your city location.

Track the satellite on the map from your city or location and see movement details for azimuth, elevation, latitude, longitude, range, height, and movement on the map or in text.







IsCatalogInMostPopularTable: catalog: 53090, numindb: 5
Update: records affected: 1



GetName: 53090 FALCON 9 DEB

Hit Count: updated at: Thu, 29 Sep 2022 12:25:02 GMT